Regional Weather Roundup
Issued by NWS Cleveland, OH

Home | Current Version | Previous Version | Text Only | Print | Product List | Glossary Off
Versions: 1 2 3 4 5 6 7 8 9 10 11 12 13 14 15 16 17 18 19 20 21 22 23 24 25 26 27 28 29 30 31 32 33 34 35 36 37 38 39 40 41 42 43 44 45 46 47 48 49 50

000
ASUS41 KCLE 290302
RWRCLE
OHIO REGIONAL WEATHER ROUNDUP
NATIONAL WEATHER SERVICE CLEVELAND, OH
1100 PM EDT FRI AUG 28 2015

NOTE: "FAIR" INDICATES FEW OR NO CLOUDS BELOW 12,000 FEET WITH NO
SIGNIFICANT WEATHER AND/OR OBSTRUCTIONS TO VISIBILITY.

OHZ001>008-015>018-024>027-034-035-043-044-290400-
   NORTHWEST OHIO

CITY           SKY/WX    TMP DP  RH WIND       PRES   REMARKS
DEFIANCE       PTCLDY    64  59  83 SE3       30.14R
FINDLAY        PTCLDY    66  58  75 E5        30.14S
TOLEDO EXPRESS PTCLDY    63  59  87 SE3       30.14S
TOLEDO EXEC    PTCLDY    65  58  78 SE6       30.16R
LIMA           PTCLDY    62  57  83 CALM      30.15S
$$

OHZ009>014-019>023-028>033-038-089-290400-
   NORTHEAST OHIO

CITY           SKY/WX    TMP DP  RH WIND       PRES   REMARKS
CLE-HOPKINS    MOCLDY    66  56  70 E5        30.19S
CLE-LAKEFRONT  PTCLDY    68  56  65 SE3       30.16S
CUY CO. ARPT   MOCLDY    64  59  82 SE6       30.18F
LORAIN-ELYRIA  PTCLDY    58  56  93 CALM      30.17S
ASHTABULA      MOCLDY    58  57  97 CALM      30.20S
AKRON-CANTON   PTCLDY    64  57  78 NE8       30.18S
WOOSTER        PTCLDY    57  54  89 CALM      30.18R
MANSFIELD      MOCLDY    63  58  83 CALM      30.18S
YOUNGSTOWN     MOCLDY    60  57  89 E3        30.19R
$$

OHZ042-051>053-060>062-070>072-077>081-290400-
  SOUTHWEST OHIO

CITY           SKY/WX    TMP DP  RH WIND       PRES   REMARKS
CINC-COVINGTON PTCLDY    67  59  75 SE5       30.14R
CINC-LUNKEN    PTCLDY    63  61  93 CALM      30.14R
HAMILTON       PTCLDY    61  58  90 CALM      30.14R
DAYTON         MOCLDY    65  57  75 SE6       30.15S
WRIGHT-PAT AFB PTCLDY    66  58  77 CALM      30.14F
DAYTON GENERAL PTCLDY    66  57  72 E6        30.14R
WILMINGTON     PTCLDY    62  56  80 E5        30.15R
$$

OHZ036-037-039>041-045>050-054>059-063>069-073>076-082>088-290400-
  CENTRAL AND SOUTHEAST OHIO

CITY           SKY/WX    TMP DP  RH WIND       PRES   REMARKS
COLUMBUS       PTCLDY    65  58  78 CALM      30.15R
OSU AIRPORT    PTCLDY    65  57  75 CALM      30.16R
BOLTON FIELD   NOT AVBL
RICKENBACK AFB PTCLDY    63  58  84 CALM      30.15R
NEWARK         CLEAR     59  57  93 CALM      30.16R
MARION         MOCLDY    61  57  87 CALM      30.16S
LANCASTER      CLEAR     56  54  93 CALM      30.16S
ZANESVILLE     CLEAR     63  55  75 CALM      30.16S
NEW PHILLY     CLEAR     57  55  93 CALM      30.17S
$$



USA.gov is the U.S. government's official web portal to all federal, state and local government web resources and services.